[[{"header":{"parameterUnit":"m.s-1","parameterCategory":1,"la1":30.2992,"la2":30.254,"lo1":-89.0895,"lo2":-89.0443,"dy":0.0025,"dx":0.0025,"nx":19,"ny":19,"refTime":"2026-03-25T09:00:00:Z","depth":0,"parameterNumber":2,"parameterNumberName":"U-component_of_WINDS"},"data":[0,0,0,-1.7375,-1.7376,-1.7404,-1.7404,-1.7457,-1.7457,0,0,0,0,0,0,0,0,0,0,0,-1.7375,-1.7375,-1.7375,-1.7376,-1.7404,-1.7404,-1.7457,-1.7457,0,0,0,0,0,0,0,0,0,0,0,-1.7374,-1.7375,-1.7376,-1.7376,-1.7404,-1.7404,-1.7456,-1.743,0,0,0,0,0,0,0,0,0,0,-1.74,-1.7406,-1.7375,-1.7376,-1.7376,-1.7404,-1.7404,-1.7428,-1.7432,-1.745,0,-1.7467,0,-1.7463,-1.7462,-1.7462,0,0,0,-1.7371,-1.7403,-1.7404,-1.7376,-1.7377,-1.7404,-1.739,-1.743,-1.7434,-1.7455,-1.7468,-1.7469,-1.7464,-1.7462,-1.7462,-1.7585,-1.7586,0,0,-1.7369,-1.7384,-1.7402,-1.7407,-1.7401,-1.7389,-1.7391,-1.7432,-1.7448,-1.7468,-1.747,-1.7465,-1.7462,-1.7463,-1.7584,-1.7585,0,0,0,-1.7368,-1.7383,-1.7382,-1.7405,-1.7409,-1.739,-1.7392,-1.7446,-1.7444,-1.7471,-1.7465,-1.7463,-1.7464,-1.7584,-1.7585,-1.7639,0,0,0,-1.7367,-1.7383,-1.7382,-1.7391,-1.7408,-1.7427,-1.7405,-1.7442,-1.7446,-1.7465,-1.7463,-1.7464,-1.7583,-1.7584,-1.7635,-1.7662,0,0,0,-1.737,-1.7383,-1.7389,-1.7392,-1.7404,-1.7426,-1.7427,-1.7442,-1.7443,-1.7462,-1.7464,-1.7582,-1.7584,-1.7632,-1.7657,-1.7699,0,0,0,-1.7378,-1.7437,-1.739,-1.7455,-1.7404,-1.7459,-1.7426,-1.7467,-1.749,-1.7463,-1.7583,-1.7585,-1.7631,-1.7654,-1.7696,-1.7736,-1.7755,0,0,-1.746,-1.7447,-1.7484,-1.7444,-1.751,-1.7454,-1.7529,-1.7537,-1.7526,-1.7567,-1.757,-1.7637,-1.7656,-1.7698,-1.7854,-1.7869,0,0,0,-1.7516,-1.7542,-1.7557,-1.7579,-1.7586,-1.7595,-1.7589,-1.7593,-1.7627,-1.7549,-1.7663,-1.7674,-1.7699,-1.7717,-1.773,-1.775,-1.7594,-1.7594,-1.7594,-1.7652,-1.7636,-1.7696,-1.7684,-1.7706,-1.7701,-1.7719,-1.7723,-1.7699,-1.7727,-1.7738,-1.7834,-1.7857,-1.7866,-1.7888,-1.7759,-1.7759,-1.7759,-1.7759,-1.7772,-1.7807,-1.7776,-1.7823,-1.7807,-1.7847,-1.7847,-1.7829,-1.7866,-1.7824,-1.7844,-1.7798,-1.7883,-1.7901,-1.7763,-1.7763,-1.7762,-1.7762,-1.7762,-1.7859,-1.7873,-1.7876,-1.7908,-1.7936,-1.7923,-1.796,-1.7943,-1.7929,-1.7949,-1.796,-1.7959,-1.7956,-1.7956,-1.7956,-1.7956,-1.7957,-1.7957,-1.7957,-1.7947,-1.7949,-1.7981,-1.7996,-1.801,-1.8026,-1.8025,-1.8039,-1.805,-1.8035,-1.8035,-1.801,-1.7894,-1.7865,-1.7962,-1.7961,-1.7961,-1.796,-1.796,-1.8073,-1.8043,-1.8092,-1.8106,-1.8124,-1.8154,-1.8133,-1.8164,-1.8173,-1.8193,-1.8165,-1.8081,-1.8067,-1.8057,-1.8032,-1.8167,-1.8167,-1.8167,-1.8167,-1.8146,-1.8138,-1.8186,-1.8209,-1.8231,-1.8219,-1.8279,-1.8281,-1.8277,-1.8283,-1.8262,-1.8229,-1.8219,-1.8211,-1.8197,-1.8174,-1.8342,-1.8342,-1.8342,-1.8223,-1.8216,-1.8268,-1.8264,-1.8278,-1.8291,-1.8348,-1.8379,-1.8369,-1.8349,-1.8287,-1.828,-1.8227,-1.821,-1.8186,-1.8166,-1.8123,0,0]},{"header":{"parameterUnit":"m.s-1","parameterCategory":1,"la1":30.2992,"la2":30.254,"lo1":-89.0895,"lo2":-89.0443,"dy":0.0025,"dx":0.0025,"nx":19,"ny":19,"refTime":"2026-03-25T09:00:00:Z","depth":0,"parameterNumber":3,"parameterNumberName":"V-component_of_WINDS"},"data":[0,0,0,3.1058,3.1058,3.1077,3.1077,3.1079,3.1079,0,0,0,0,0,0,0,0,0,0,0,3.1039,3.1039,3.1058,3.1058,3.1077,3.1077,3.1079,3.1079,0,0,0,0,0,0,0,0,0,0,0,3.1039,3.1039,3.1038,3.1058,3.1077,3.1077,3.1079,3.1073,0,0,0,0,0,0,0,0,0,0,3.1058,3.1028,3.1039,3.1038,3.1058,3.1077,3.1077,3.1073,3.1073,3.1061,0,3.1047,0,3.1063,3.1077,3.1077,0,0,0,3.1068,3.1027,3.1045,3.1038,3.1058,3.1077,3.1071,3.1073,3.1073,3.1061,3.1047,3.1048,3.1063,3.1077,3.1077,3.0979,3.0978,0,0,3.1067,3.1035,3.1044,3.1044,3.1041,3.1071,3.1072,3.1074,3.1056,3.1048,3.1049,3.1063,3.1077,3.1077,3.098,3.0979,0,0,0,3.1057,3.1034,3.1052,3.1044,3.1049,3.1071,3.1072,3.1056,3.1065,3.1049,3.1063,3.1077,3.1077,3.0981,3.098,3.0905,0,0,0,3.1057,3.1029,3.1051,3.1032,3.1048,3.1053,3.1054,3.1064,3.1066,3.1063,3.1077,3.1077,3.0982,3.098,3.0909,3.0873,0,0,0,3.1042,3.1027,3.1025,3.103,3.1037,3.1053,3.1062,3.1065,3.1074,3.1077,3.1077,3.0983,3.0981,3.0913,3.088,3.0839,0,0,0,3.1017,3.0957,3.1024,3.0962,3.1037,3.1008,3.1063,3.1042,3.1036,3.1077,3.0982,3.098,3.0914,3.0884,3.0842,3.0798,3.0776,0,0,3.0923,3.0944,3.0911,3.0971,3.0922,3.1007,3.0947,3.0971,3.0999,3.0984,3.0982,3.0907,3.088,3.084,3.067,3.0652,0,0,0,3.087,3.0845,3.084,3.0833,3.0852,3.0864,3.0901,3.0911,3.09,3.0986,3.0883,3.0868,3.0845,3.0825,3.081,3.0793,3.097,3.097,3.097,3.0689,3.0732,3.0679,3.0724,3.0718,3.0758,3.0757,3.0776,3.0819,3.0794,3.0789,3.0681,3.0656,3.0645,3.0627,3.077,3.077,3.0769,3.0769,3.0555,3.0526,3.0588,3.0559,3.0604,3.058,3.0618,3.0649,3.0633,3.0687,3.067,3.0724,3.0625,3.0611,3.0764,3.0765,3.0765,3.0766,3.0766,3.044,3.0434,3.0448,3.0446,3.0439,3.0487,3.047,3.0512,3.0551,3.0533,3.0533,3.0534,3.054,3.0531,3.053,3.053,3.053,3.0529,3.0529,3.0314,3.0333,3.0314,3.0331,3.0334,3.0343,3.0385,3.0389,3.0404,3.0436,3.0436,3.0481,3.0609,3.0639,3.0523,3.0524,3.0525,3.0526,3.0526,3.0159,3.0202,3.0171,3.0175,3.0199,3.0191,3.0246,3.0251,3.0261,3.0251,3.0302,3.0389,3.0413,3.0425,3.045,3.0293,3.0293,3.0293,3.0293,3.0061,3.0079,3.0059,3.0061,3.0069,3.0117,3.0082,3.0116,3.0157,3.0165,3.0195,3.0233,3.0243,3.0261,3.0277,3.0301,3.0109,3.0109,3.0109,2.9968,2.9989,2.995,2.9993,3.0016,3.0035,3.0004,3.0005,3.0061,3.0102,3.0173,3.0181,3.0243,3.0261,3.03,3.0324,3.0369,0,0]}]]